Saranac Lake, NY

2:49 PM EST on January 19, 2018 (GMT -0500)
Adirondack Regional

Weather History for KSLK - September, 2013

Change the Weather History Date:

Thursday, September 12, 2013

  Actual Average Record
Temperature  
Mean Temperature 64 °F 55 °F  
Max Temperature 70 °F 68 °F 84 °F (1952)
Min Temperature 57 °F 43 °F 28 °F (1992)
Degree Days  
Heating Degree Days 1 10  
Month to date heating degree days 101 100  
Since 1 July heating degree days 314 340  
Cooling Degree Days 0 0  
Month to date cooling degree days 16 7  
Year to date cooling degree days 187 114  
Growing Degree Days 14 (Base 50)    
Moisture  
Dew Point 64 °F    
Average Humidity 94    
Maximum Humidity 100    
Minimum Humidity 87    
Precipitation  
Precipitation 0.12 in 0.12 in 1.59 in (1975)
Month to date precipitation 2.96 1.36  
Year to date precipitation 31.84 25.90  
Sea Level Pressure  
Sea Level Pressure 29.79 in    
Wind  
Wind Speed 4 mph (SW)    
Max Wind Speed 13 mph    
Max Gust Speed 39 mph    
Visibility 6 miles    
Events Rain , Thunderstorm    
T = Trace of Precipitation, MM = Missing Value Source: NWS Daily Summary

Daily Weather History Graph

Daily Weather History Graph

Search for Another Location

Airport or City:

Trip Planner

Search our weather history database for the weather conditions in past years. The results will help you decide how hot, cold, wet, or windy it might be!

Date:

Astronomy

Sep. 12, 2013 Rise Set
Actual Time 6:32 AM EDT 7:12 PM EDT
Civil Twilight 6:03 AM EDT 7:41 PM EDT
Nautical Twilight 5:28 AM EDT 8:16 PM EDT
Astronomical Twilight 4:52 AM EDT 8:52 PM EDT
Moon 2:12 PM EDT (9/12) 11:50 PM EDT (9/12)
Length of Visible Light 13h 38m
Length of Day
12h 40m
Waxing Crescent, 50% of the Moon is Illuminated
Sep 12
Waxing Crescent
Sep 12
First Quarter
Sep 19
Full
Sep 26
Last Quarter
Oct 4
New

Hourly Weather History & Observations

Time (EDT) Temp. Dew Point Humidity Pressure Visibility Wind Dir Wind Speed Gust Speed Precip Events Conditions
12:14 AM 68.0 °F 64.4 °F 88% 29.94 in 10.0 mi WSW 8.1 mph - N/A Thunderstorm Mostly Cloudy
12:36 AM 68.0 °F 64.4 °F 88% 29.94 in 10.0 mi Calm Calm - N/A   Mostly Cloudy
12:51 AM 66.0 °F 64.0 °F 93% 29.89 in 9.0 mi Calm Calm - N/A   Mostly Cloudy
1:02 AM 66.2 °F 64.4 °F 94% 29.93 in 8.0 mi NW 4.6 mph - N/A Thunderstorm Thunderstorm
1:28 AM 66.2 °F 64.4 °F 94% 29.92 in 9.0 mi Calm Calm - N/A   Mostly Cloudy
1:51 AM 64.9 °F 64.0 °F 97% 29.88 in 4.0 mi Calm Calm - N/A   Mostly Cloudy
2:30 AM 66.2 °F 64.4 °F 94% 29.92 in 8.0 mi Calm Calm - N/A   Mostly Cloudy
2:51 AM 66.9 °F 64.0 °F 90% 29.88 in 9.0 mi Calm Calm - N/A   Overcast
3:22 AM 64.4 °F 64.4 °F 100% 29.92 in 6.0 mi Calm Calm - N/A   Scattered Clouds
3:46 AM 64.4 °F 62.6 °F 94% 29.92 in 2.0 mi Calm Calm - N/A   Clear
3:49 AM 64.4 °F 62.6 °F 94% 29.92 in 0.8 mi Calm Calm - N/A   Partly Cloudy
3:51 AM 64.0 °F 63.0 °F 96% 29.89 in 0.8 mi Calm Calm - N/A   Partly Cloudy
4:07 AM 62.6 °F 62.6 °F 100% 29.92 in 1.8 mi Calm Calm - N/A   Mostly Cloudy
4:09 AM 62.6 °F 62.6 °F 100% 29.92 in 3.0 mi Calm Calm - N/A   Mostly Cloudy
4:24 AM 64.4 °F 62.6 °F 94% 29.92 in 7.0 mi SW 5.8 mph - N/A   Overcast
4:51 AM 66.0 °F 63.0 °F 90% 29.87 in 9.0 mi WSW 3.5 mph - N/A   Mostly Cloudy
5:51 AM 64.0 °F 63.0 °F 96% 29.84 in 7.0 mi Calm Calm - N/A   Mostly Cloudy
6:51 AM 64.0 °F 63.0 °F 96% 29.85 in 7.0 mi SW 3.5 mph - N/A   Overcast
7:51 AM 66.0 °F 64.0 °F 93% 29.84 in 6.0 mi SW 5.8 mph - N/A   Mostly Cloudy
8:38 AM 66.2 °F 64.4 °F 94% 29.86 in 7.0 mi SW 9.2 mph - N/A   Mostly Cloudy
8:47 AM 66.2 °F 64.4 °F 94% 29.86 in 6.0 mi SW 9.2 mph - N/A   Overcast
8:51 AM 66.9 °F 64.0 °F 90% 29.83 in 6.0 mi SW 10.4 mph - N/A   Overcast
9:04 AM 66.2 °F 64.4 °F 94% 29.85 in 6.0 mi SW 8.1 mph - 0.01 in Rain Light Rain
9:51 AM 66.9 °F 64.9 °F 93% 29.82 in 5.0 mi SW 5.8 mph - 0.02 in   Overcast
10:51 AM 69.1 °F 66.0 °F 90% 29.81 in 7.0 mi WSW 9.2 mph - 0.00 in   Overcast
11:21 AM 68.0 °F 64.4 °F 88% 29.82 in 6.0 mi SW 9.2 mph - 0.00 in Rain Light Rain
11:51 AM 68.0 °F 66.0 °F 93% 29.79 in 5.0 mi SW 8.1 mph - 0.01 in Rain Light Rain
12:26 PM 69.8 °F 66.2 °F 88% 29.80 in 6.0 mi SW 6.9 mph - 0.00 in   Overcast
12:39 PM 69.8 °F 66.2 °F 88% 29.80 in 7.0 mi SW 9.2 mph - 0.00 in   Overcast
12:51 PM 69.1 °F 66.0 °F 90% 29.78 in 7.0 mi WSW 8.1 mph - 0.00 in   Overcast
1:23 PM 68.0 °F 64.4 °F 88% 29.80 in 6.0 mi SW 10.4 mph - 0.00 in Rain Light Rain
1:37 PM 68.0 °F 64.4 °F 88% 29.80 in 4.0 mi WSW 6.9 mph 18.4 mph 0.01 in Rain Light Rain
1:51 PM 68.0 °F 64.9 °F 90% 29.77 in 4.0 mi SW 4.6 mph - 0.02 in Rain Light Rain
2:04 PM 66.2 °F 66.2 °F 100% 29.79 in 2.0 mi WSW 5.8 mph - 0.02 in Rain Rain
2:14 PM 66.2 °F 66.2 °F 100% 29.78 in 5.0 mi SSW 8.1 mph - 0.02 in Rain Light Rain
2:38 PM 68.0 °F 66.2 °F 94% 29.77 in 5.0 mi SW 5.8 mph - 0.02 in   Overcast
2:46 PM 68.0 °F 66.2 °F 94% 29.77 in 6.0 mi SW 6.9 mph - 0.02 in   Overcast
2:51 PM 68.0 °F 66.0 °F 93% 29.75 in 6.0 mi SW 9.2 mph - 0.02 in   Overcast
2:58 PM 68.0 °F 66.2 °F 94% 29.77 in 6.0 mi SW 9.2 mph - N/A   Overcast
3:16 PM 68.0 °F 66.2 °F 94% 29.76 in 7.0 mi SW 8.1 mph - N/A   Mostly Cloudy
3:27 PM 68.0 °F 66.2 °F 94% 29.75 in 7.0 mi SW 6.9 mph - N/A   Scattered Clouds
3:51 PM 68.0 °F 64.9 °F 90% 29.71 in 7.0 mi WSW 6.9 mph - N/A   Scattered Clouds
4:14 PM 68.0 °F 64.4 °F 88% 29.73 in 6.0 mi WSW 6.9 mph - N/A   Mostly Cloudy
4:51 PM 68.0 °F 64.0 °F 87% 29.68 in 8.0 mi WSW 6.9 mph - N/A   Mostly Cloudy
5:31 PM 66.2 °F 64.4 °F 94% 29.72 in 6.0 mi WSW 4.6 mph - N/A   Overcast
5:51 PM 66.9 °F 64.0 °F 90% 29.71 in 6.0 mi West 3.5 mph - N/A   Overcast
6:18 PM 66.2 °F 62.6 °F 88% 29.73 in 5.0 mi WSW 3.5 mph - 0.01 in Rain Light Rain
6:51 PM 64.9 °F 64.0 °F 97% 29.69 in 4.0 mi SW 3.5 mph - 0.02 in Rain Light Rain
7:15 PM 64.4 °F 64.4 °F 100% 29.70 in 4.0 mi Calm Calm - 0.00 in   Overcast
7:26 PM 64.4 °F 64.4 °F 100% 29.71 in 4.0 mi Calm Calm - 0.00 in Rain Light Rain
7:46 PM 64.4 °F 62.6 °F 94% 29.71 in 6.0 mi SW 4.6 mph - 0.01 in   Overcast
7:51 PM 64.0 °F 64.0 °F 100% 29.69 in 5.0 mi SW 5.8 mph - 0.01 in   Overcast
8:26 PM 64.4 °F 64.4 °F 100% 29.71 in 4.0 mi SW 3.5 mph - 0.00 in   Overcast
8:40 PM 64.4 °F 64.4 °F 100% 29.70 in 5.0 mi SSW 4.6 mph - 0.00 in   Overcast
8:51 PM 64.0 °F 63.0 °F 96% 29.68 in 5.0 mi WSW 3.5 mph - 0.00 in   Overcast
9:33 PM 64.4 °F 62.6 °F 94% 29.69 in 6.0 mi SW 5.8 mph - N/A   Overcast
9:51 PM 64.0 °F 63.0 °F 96% 29.67 in 6.0 mi WSW 4.6 mph - N/A   Overcast
10:00 PM 64.4 °F 62.6 °F 94% 29.68 in 6.0 mi SW 5.8 mph - N/A   Mostly Cloudy
10:10 PM 64.4 °F 62.6 °F 94% 29.68 in 5.0 mi WSW 3.5 mph - N/A   Overcast
10:27 PM 62.6 °F 60.8 °F 94% 29.69 in 6.0 mi North 6.9 mph - N/A   Overcast
10:39 PM 60.8 °F 57.2 °F 88% 29.70 in 10.0 mi Variable 3.5 mph - N/A   Overcast
10:51 PM 59.0 °F 57.0 °F 93% 29.68 in 6.0 mi Variable 3.5 mph - 0.00 in Rain Light Rain
11:51 PM 59.0 °F 57.9 °F 96% 29.67 in 6.0 mi Calm Calm - 0.01 in   Overcast